Precipitable_Water
1.46 1.22 1.13 1.18 1.19 1.03 0.82 0.75 0.76 0.83 0.92 0.84 0.80 0.79 0.81 0.79 0.74 0.73 0.78 0.80 0.81 0.82 0.91 0.96 1.03 1.07 1.15 1.21 1.29 1.35 1.39 1.45 1.53 1.47 1.39 1.36 1.31 1.39 1.42 1.43 1.45 1.48 1.51 1.52
1.27 1.11 1.25 1.21 1.22 0.97 0.85 0.81 0.80 0.87 0.93 0.95 0.76 0.66 0.66 0.64 0.73 0.76 0.84 0.90 0.90 0.86 0.92 0.98 1.03 1.05 1.10 1.13 1.20 1.26 1.33 1.41 1.46 1.46 1.46 1.48 1.47 1.50 1.54 1.55 1.52 1.56 1.58 1.59
1.12 1.22 1.33 1.14 1.06 0.90 0.88 0.83 0.81 0.83 0.91 0.92 0.81 0.59 0.53 0.68 0.79 0.84 0.90 0.96 0.96 0.95 0.99 0.98 1.00 1.05 1.11 1.12 1.16 1.18 1.23 1.31 1.41 1.45 1.46 1.47 1.49 1.49 1.46 1.46 1.47 1.50 1.55 1.57
1.16 1.29 1.19 1.11 1.02 0.95 0.77 0.91 0.86 0.84 0.83 0.72 0.88 0.46 0.52 0.67 0.71 0.75 0.82 0.83 0.90 0.96 1.03 1.06 1.08 1.04 1.05 1.11 1.21 1.21 1.25 1.27 1.33 1.38 1.32 1.28 1.25 1.21 1.30 1.42 1.49 1.52 1.59 1.58
1.10 1.14 1.13 1.04 1.03 1.03 0.93 0.87 0.86 0.83 0.76 0.73 0.64 0.65 0.51 0.65 0.70 0.68 0.76 0.75 0.79 0.87 0.89 0.99 1.08 1.16 1.11 1.13 1.17 1.22 1.30 1.34 1.40 1.42 1.45 1.40 1.37 1.37 1.42 1.48 1.51 1.57 1.64 1.68
1.19 1.31 1.24 1.13 1.13 1.09 0.98 0.88 0.86 0.82 0.74 0.61 0.62 0.70 0.58 0.61 0.72 0.67 0.73 0.73 0.81 0.92 0.99 1.10 1.23 1.35 1.39 1.39 1.30 1.30 1.34 1.46 1.58 1.61 1.64 1.59 1.54 1.56 1.56 1.62 1.63 1.66 1.70 1.74
1.11 1.11 1.23 1.20 1.02 1.06 0.94 0.80 0.62 0.57 0.54 0.58 0.65 0.59 0.70 0.76 0.78 0.77 0.82 0.89 0.94 0.99 1.06 1.16 1.23 1.30 1.37 1.41 1.47 1.51 1.54 1.57 1.64 1.66 1.67 1.68 1.67 1.67 1.65 1.64 1.61 1.59 1.63 1.69
0.88 0.82 1.06 1.11 1.00 0.89 0.88 0.87 0.72 0.50 0.47 0.55 0.59 0.59 0.71 0.79 0.82 0.82 0.81 0.86 0.91 0.95 1.02 1.09 1.18 1.25 1.29 1.33 1.39 1.45 1.48 1.56 1.68 1.72 1.71 1.74 1.77 1.67 1.60 1.55 1.55 1.56 1.60 1.68
0.89 0.99 1.09 1.10 1.10 0.95 0.88 0.74 0.82 0.62 0.49 0.41 0.54 0.60 0.69 0.76 0.76 0.81 0.84 0.90 0.92 0.96 1.00 1.04 1.18 1.26 1.30 1.35 1.40 1.42 1.45 1.48 1.52 1.53 1.54 1.58 1.61 1.55 1.48 1.53 1.57 1.52 1.59 1.61
1.07 0.86 1.04 1.04 1.05 0.91 0.80 0.84 0.56 0.51 0.40 0.36 0.44 0.49 0.60 0.64 0.69 0.79 0.82 0.89 0.98 1.09 1.11 1.17 1.22 1.29 1.37 1.41 1.44 1.47 1.47 1.45 1.49 1.52 1.52 1.51 1.53 1.53 1.53 1.54 1.52 1.56 1.61 1.65
1.12 0.97 1.00 1.01 0.83 0.75 0.74 0.67 0.56 0.51 0.44 0.43 0.41 0.47 0.65 0.69 0.72 0.78 0.86 0.93 0.98 1.02 1.07 1.11 1.18 1.29 1.32 1.33 1.32 1.31 1.30 1.29 1.28 1.29 1.26 1.20 1.18 1.19 1.25 1.28 1.32 1.36 1.39 1.41
1.16 1.10 0.90 0.93 0.89 0.89 0.78 0.65 0.58 0.45 0.44 0.44 0.43 0.52 0.71 0.70 0.75 0.84 0.92 1.00 1.07 1.11 1.14 1.15 1.18 1.22 1.22 1.20 1.22 1.21 1.21 1.17 1.17 1.17 1.09 0.98 0.99 1.05 1.08 1.06 1.11 1.18 1.18 1.27
1.17 0.98 0.83 0.82 0.74 0.81 0.69 0.69 0.60 0.52 0.50 0.46 0.42 0.56 0.71 0.79 0.81 0.90 0.92 0.97 1.05 1.07 1.07 1.10 1.11 1.07 1.06 1.08 1.09 1.07 1.06 1.08 1.07 0.95 0.89 0.90 0.89 0.91 0.90 0.91 0.95 1.01 1.04 1.04
1.24 1.01 0.87 0.81 0.68 0.67 0.57 0.62 0.58 0.51 0.46 0.52 0.48 0.61 0.68 0.73 0.78 0.87 0.92 0.98 1.00 1.01 1.03 1.04 1.05 1.08 1.10 1.12 1.10 1.07 1.03 1.00 0.94 0.91 0.88 0.87 0.91 0.97 1.00 1.04 1.07 1.09 1.15 1.17
1.20 0.89 0.98 0.93 0.82 0.67 0.61 0.60 0.58 0.52 0.55 0.50 0.61 0.54 0.69 0.75 0.79 0.84 0.94 0.97 0.99 0.98 1.00 1.05 1.07 1.11 1.12 1.10 1.11 1.06 0.98 0.94 0.94 0.93 0.93 0.95 1.02 1.05 1.06 1.07 1.12 1.20 1.25 1.30
1.20 0.97 0.97 0.81 0.72 0.65 0.60 0.62 0.60 0.59 0.59 0.60 0.57 0.60 0.78 0.78 0.85 0.89 0.92 0.94 0.95 0.99 1.06 1.12 1.15 1.16 1.14 1.12 1.03 0.97 0.96 0.98 1.04 1.01 0.98 0.98 0.94 0.96 0.98 1.04 1.10 1.17 1.21 1.22
1.07 0.98 0.87 0.76 0.72 0.64 0.58 0.64 0.64 0.66 0.66 0.64 0.58 0.70 0.82 0.80 0.84 0.90 0.94 0.98 1.01 1.07 1.14 1.15 1.15 1.14 1.07 1.00 0.98 0.90 0.95 1.01 0.98 0.92 0.86 0.90 0.96 0.98 1.05 1.13 1.17 1.18 1.21 1.28
1.03 0.98 0.91 0.74 0.75 0.54 0.73 0.79 0.76 0.71 0.71 0.73 0.72 0.77 0.87 0.88 0.93 0.99 1.05 1.05 1.08 1.13 1.14 1.16 1.12 1.05 1.03 1.01 0.97 0.98 0.95 0.93 0.89 0.84 0.90 0.97 1.00 1.03 1.09 1.15 1.19 1.23 1.23 1.22
1.09 0.96 0.83 0.77 0.72 0.76 0.74 0.76 0.72 0.69 0.70 0.78 0.77 0.82 0.88 0.90 0.92 0.94 1.06 1.12 1.14 1.15 1.12 1.03 1.00 1.00 0.98 0.97 0.95 0.93 0.90 0.91 0.88 0.88 0.95 1.00 1.03 1.04 1.06 1.07 1.15 1.22 1.22 1.23
1.00 0.98 0.83 0.82 0.74 0.61 0.74 0.81 0.84 0.80 0.66 0.84 0.84 0.80 0.81 0.85 0.72 0.86 1.07 1.11 1.12 1.07 1.01 0.95 0.98 0.97 0.94 0.92 0.94 0.90 0.87 0.88 0.89 0.95 0.99 1.04 1.05 1.04 1.04 1.10 1.12 1.17 1.21 1.20
0.79 0.81 0.73 0.74 0.65 0.72 0.82 0.85 0.88 0.64 0.75 0.84 0.85 0.85 0.88 0.81 0.92 1.05 1.09 1.07 1.05 1.00 0.97 0.99 0.93 0.87 0.90 0.96 0.93 0.83 0.87 0.89 0.97 1.02 1.02 1.01 1.04 1.04 1.06 1.07 1.11 1.13 1.15 1.17
0.78 0.74 0.70 0.73 0.67 0.64 0.93 0.87 0.75 0.89 0.88 0.85 0.86 0.88 0.90 0.97 1.01 1.04 1.03 0.96 0.95 0.94 0.94 0.91 0.85 0.86 0.95 0.96 0.89 0.87 0.89 0.98 1.03 1.01 0.99 1.00 1.03 1.03 1.05 1.05 1.10 1.13 1.16 1.15
0.70 0.75 0.79 0.76 0.80 0.91 0.96 0.94 0.93 0.92 0.87 0.89 0.90 0.94 1.00 1.00 0.99 0.95 0.89 0.89 0.90 0.90 0.88 0.87 0.85 0.87 0.90 0.93 0.94 0.89 0.95 0.99 0.97 0.96 0.96 0.98 0.99 1.01 1.02 0.98 0.98 1.00 1.11 1.09
0.80 0.86 0.77 0.77 0.82 0.85 0.89 0.92 0.94 0.96 0.96 0.99 1.04 1.06 1.00 0.90 0.89 0.86 0.88 0.89 0.87 0.87 0.84 0.86 0.87 0.85 0.86 0.92 0.97 0.97 0.94 0.94 0.92 0.91 0.92 0.95 0.92 0.89 0.91 0.88 0.90 0.90 0.92 0.91
0.82 0.85 0.78 0.77 0.84 0.87 0.88 0.92 0.93 0.97 1.03 1.02 1.00 0.97 0.96 0.94 0.85 0.86 0.85 0.84 0.86 0.85 0.88 0.89 0.89 0.88 0.88 0.97 0.97 0.94 0.93 0.91 0.88 0.86 0.87 0.85 0.85 0.83 0.82 0.87 0.92 0.94 1.02 1.01
0.81 0.82 0.70 0.69 0.94 0.82 0.84 0.92 0.99 0.98 0.97 0.99 0.96 0.95 0.94 0.88 0.85 0.84 0.82 0.85 0.85 0.86 0.88 0.90 0.93 0.91 0.96 0.98 0.93 0.90 0.89 0.87 0.82 0.78 0.78 0.77 0.78 0.78 0.79 0.81 0.84 0.98 0.98 1.02
Wind_Speed
5 5 7 6 8 7 8 8 6 5 4 3 3 4 7 7 7 7 7 6 6 5 6 6 6 6 6 6 6 6 6 6 6 6 6 7 8 8 8 9 10 11 12 13
6 7 7 7 11 8 7 7 6 6 3 4 5 6 7 9 7 6 5 5 4 5 6 6 6 6 5 5 6 6 6 6 7 7 8 8 9 10 10 11 12 13 14 15
9 6 9 9 10 8 8 6 6 4 6 4 5 8 8 8 6 5 4 4 4 5 5 6 5 5 5 6 6 6 7 8 9 9 8 9 10 12 12 13 15 16 17 18
10 10 10 11 9 9 8 5 6 8 6 5 4 7 8 9 6 5 4 5 5 5 6 5 5 4 5 5 5 6 7 8 9 10 11 11 12 14 15 17 18 19 20 21
9 10 12 11 8 9 4 6 9 8 6 6 5 3 10 7 6 7 6 6 6 6 6 5 5 5 5 6 7 7 8 8 10 11 13 14 17 18 20 21 22 23 24 25
13 12 12 11 9 9 8 9 8 7 5 4 4 3 7 9 7 9 6 6 6 4 4 5 5 6 8 9 10 10 11 12 14 15 17 19 21 22 24 25 26 28 29 30
13 17 14 12 11 10 11 10 7 7 7 5 3 4 6 5 3 5 5 4 4 6 8 8 9 10 10 11 12 14 15 16 18 20 22 24 26 28 30 31 32 33 34 35
14 17 16 14 14 8 15 12 4 5 4 6 4 5 4 3 1 3 5 4 4 3 3 5 5 7 8 9 11 13 15 17 18 21 23 25 27 29 31 33 34 35 36 36
12 18 13 13 13 11 13 11 4 4 4 5 5 4 4 4 1 3 4 4 2 1 2 2 3 4 5 6 8 9 10 12 15 18 20 23 26 29 31 33 34 34 34 35
10 12 12 11 14 12 11 9 8 7 4 4 5 4 3 7 3 4 4 3 2 2 1 1 3 4 5 7 8 10 12 15 18 20 24 26 29 30 31 31 31 32 33 34
13 16 13 14 16 15 13 12 9 4 5 3 5 3 2 5 5 5 4 3 3 2 2 3 4 6 8 9 12 14 17 20 22 25 28 30 31 31 31 31 32 33 35 35
17 12 13 18 11 13 15 13 13 9 8 7 7 2 3 5 6 5 5 5 4 4 4 4 6 8 11 13 16 19 22 24 27 30 32 32 32 32 33 34 35 36 37 37
15 15 15 14 12 14 17 16 13 9 7 7 8 3 3 4 5 5 5 6 6 5 5 7 9 12 14 17 20 23 25 27 30 32 31 31 33 34 34 35 35 36 37 38
14 14 15 10 12 11 15 16 16 13 9 7 10 4 6 6 6 7 6 6 6 7 8 9 12 15 18 21 23 26 28 29 31 31 31 33 34 34 35 36 37 38 38 38
14 13 19 10 10 12 13 15 16 14 8 9 3 7 7 7 7 7 7 7 8 8 10 12 15 18 21 24 26 28 30 31 31 32 33 34 35 36 37 38 38 38 37 37
17 15 14 9 8 12 13 13 13 11 8 8 8 5 6 7 7 8 8 8 10 11 13 15 19 22 24 26 28 30 31 31 32 34 35 36 36 37 37 37 37 37 36 35
15 15 16 14 7 10 15 13 12 9 9 8 9 5 6 7 8 9 10 11 12 13 16 19 22 24 26 28 29 30 30 32 33 35 35 35 36 36 36 36 35 34 32 32
17 13 10 14 12 13 9 10 11 10 8 8 7 6 8 8 9 10 11 12 14 16 18 21 23 26 27 28 29 30 32 33 34 34 33 35 35 35 36 35 34 33 32 32
18 12 7 13 13 15 13 12 11 11 8 9 8 8 8 9 10 12 13 15 16 18 20 22 24 26 27 27 29 31 33 34 33 32 34 35 35 36 36 35 34 32 32 31
15 12 10 15 17 16 11 10 9 9 10 9 9 9 9 10 13 14 14 15 17 19 21 23 25 25 26 28 30 32 33 32 32 33 34 34 35 35 35 33 32 31 30 30
17 17 16 13 12 7 8 10 9 11 7 8 10 10 11 13 14 13 14 16 18 20 22 23 24 24 26 29 31 31 31 31 32 32 33 33 34 34 33 32 31 30 30 30
12 15 15 14 15 12 10 10 11 9 9 10 11 12 13 14 14 14 16 17 19 20 22 23 23 25 27 29 30 30 30 31 31 32 32 33 32 31 31 31 29 29 29 28
10 9 8 9 7 9 10 8 10 11 11 12 12 12 13 13 14 16 17 18 20 21 21 23 24 26 28 29 30 29 30 30 31 32 32 31 30 29 29 29 29 28 28 28
11 12 11 11 10 9 11 11 11 12 11 12 12 13 14 14 16 17 18 19 19 20 22 23 25 26 27 28 28 28 29 30 31 30 30 29 27 27 27 28 27 27 27 28
12 13 12 11 12 12 13 13 13 12 13 13 13 14 15 16 17 18 18 18 19 20 22 23 24 25 26 27 27 28 29 30 29 28 28 27 26 26 27 27 27 26 26 28
13 12 14 12 16 17 15 15 15 14 13 13 13 14 16 17 17 17 18 19 20 21 22 23 24 25 25 25 26 28 28 28 27 27 26 26 26 26 27 26 26 26 26 27
Wind_Direction
214 226 207 175 175 153 150 149 146 140 138 141 120 131 137 147 150 138 137 139 145 157 160 161 166 176 185 194 200 208 217 229 237 245 249 254 258 263 265 266 266 267 265 265
208 209 173 178 170 169 165 164 159 133 123 154 115 121 133 145 153 150 152 151 154 156 165 172 180 185 193 204 213 223 232 239 245 253 261 266 271 273 274 275 274 272 271 270
221 166 170 164 167 180 178 181 165 151 133 130 134 135 143 149 155 162 174 172 173 181 178 181 182 192 204 217 227 235 244 251 253 259 267 271 275 278 279 279 279 277 275 274
206 188 192 196 192 189 167 174 181 169 180 128 183 130 168 156 164 181 188 185 187 187 188 186 190 198 216 229 239 246 254 257 263 263 266 269 276 282 281 283 283 281 278 277
186 194 194 194 187 179 143 170 170 167 162 169 149 178 150 171 183 176 170 178 185 185 191 199 215 238 249 252 256 261 264 265 266 269 271 275 278 282 284 284 284 282 281 279
220 209 200 191 184 185 164 154 160 173 191 168 126 227 160 183 196 177 171 172 175 192 220 242 256 265 268 268 269 270 272 273 273 274 278 279 282 284 285 285 285 284 283 282
195 200 194 199 195 181 186 187 170 183 183 108 146 214 128 148 181 218 227 234 244 261 261 265 270 275 276 276 274 276 276 279 281 281 281 284 286 287 286 285 285 284 283 282
200 192 191 189 201 195 193 214 237 190 192 136 180 200 159 175 204 212 214 223 241 265 283 289 293 292 294 293 291 291 288 286 289 291 291 291 290 290 290 289 288 286 284 283
183 211 190 197 195 200 183 202 225 240 206 244 164 171 172 165 124 165 184 194 210 248 308 332 327 319 316 317 319 316 312 310 308 306 303 301 301 298 296 294 292 290 288 286
212 209 202 192 199 203 209 191 199 212 206 227 172 224 155 185 166 173 160 177 196 199 206 333 339 337 334 330 325 323 320 318 315 312 310 308 306 304 301 299 296 294 292 290
213 212 209 203 204 202 198 211 214 223 239 244 225 203 180 206 204 196 194 189 201 221 260 299 312 316 322 323 321 319 319 318 316 314 312 310 308 307 305 304 301 299 297 294
209 215 206 222 199 214 217 225 213 222 206 235 271 241 249 214 204 205 214 222 230 247 267 290 308 314 316 317 318 317 316 316 315 314 313 312 310 308 305 303 302 300 297 295
212 217 222 209 214 211 217 213 223 229 237 225 266 202 196 199 215 222 221 227 236 253 269 287 303 313 314 316 316 317 317 316 316 316 315 315 314 312 309 307 305 303 300 297
220 227 228 250 209 201 209 209 215 222 224 202 246 189 228 230 230 231 232 235 246 265 277 292 303 311 312 313 315 316 316 317 317 316 316 316 316 314 311 309 307 305 303 301
217 211 224 249 220 215 211 205 208 223 236 249 301 288 229 241 237 231 234 246 260 275 287 295 304 309 312 314 315 317 316 316 317 317 317 316 315 314 312 310 308 306 303 302
215 222 220 215 222 211 208 205 209 218 229 248 268 265 249 238 238 243 248 257 268 281 288 296 304 310 312 314 316 316 316 316 317 317 317 316 316 316 316 314 313 310 308 306
208 224 226 219 228 220 209 200 204 209 234 259 257 271 231 232 243 250 259 269 276 284 292 299 305 309 312 314 316 317 317 318 318 318 318 318 319 321 321 320 318 315 312 311
213 219 243 218 220 218 206 214 225 236 246 249 256 241 240 250 262 268 274 277 283 291 297 301 306 310 312 314 317 318 319 319 319 319 320 321 321 322 322 321 321 319 315 313
205 208 224 219 217 222 228 221 221 226 233 242 250 248 255 267 271 277 283 285 288 294 300 305 308 311 314 316 318 319 319 319 320 320 321 322 322 322 322 322 320 318 319 317
194 187 168 185 220 223 233 207 224 240 240 243 245 248 258 265 277 284 280 287 291 297 303 307 310 312 315 317 319 320 320 321 321 322 322 323 323 324 324 324 322 320 321 320
195 206 217 216 229 213 217 217 228 244 255 246 258 261 266 277 297 289 286 291 297 301 305 309 312 314 316 319 320 321 321 322 322 322 323 324 324 325 326 326 325 324 324 323
200 208 221 226 229 234 222 225 248 256 257 262 263 269 275 289 290 288 291 295 298 302 307 310 312 315 318 320 322 322 323 323 323 323 323 324 325 326 327 328 327 328 327 327
216 222 224 238 241 238 234 249 251 257 260 265 271 276 283 286 289 291 294 296 300 303 307 310 313 316 319 321 322 322 323 324 324 324 324 324 325 326 328 329 329 330 331 331
227 228 232 235 238 242 244 254 259 260 260 266 274 279 284 289 293 294 296 298 300 304 308 311 314 317 319 321 322 323 325 325 325 326 328 328 329 329 330 330 330 331 333 335
236 228 230 241 244 247 254 258 260 260 263 270 277 281 287 292 294 295 296 298 301 305 308 311 315 317 318 320 323 325 326 327 327 328 330 330 330 331 332 331 331 331 332 334
233 235 246 260 237 259 253 254 255 258 263 269 277 285 291 293 295 296 298 300 302 306 309 312 315 317 319 321 323 326 328 329 329 330 330 330 331 332 332 332 332 331 331 332